QPF
0.01 0.02 0.02 0.03 0.04 0.03 0.02 0.02 0.01 0.02 0.02 0.00 0.00 0.00 0.00 0.01 0.02 0.03 0.04 0.04 0.03 0.03 0.02 0.02 0.02 0.02 0.02 0.02 0.02 0.03 0.06 0.06 0.04 0.04 0.03 0.02 0.02 0.01 0.01 0.01 0.01 0.01 0.01
0.01 0.02 0.03 0.03 0.03 0.03 0.04 0.04 0.02 0.03 0.03 0.01 0.01 0.02 0.01 0.01 0.01 0.02 0.03 0.03 0.03 0.03 0.02 0.01 0.01 0.01 0.02 0.02 0.02 0.01 0.02 0.04 0.04 0.03 0.02 0.02 0.01 0.01 0.01 0.00 0.00 0.00 0.01
0.01 0.02 0.02 0.02 0.03 0.04 0.04 0.04 0.05 0.05 0.05 0.03 0.03 0.03 0.02 0.02 0.02 0.02 0.02 0.02 0.03 0.03 0.02 0.01 0.01 0.02 0.01 0.02 0.01 0.01 0.01 0.01 0.01 0.02 0.02 0.02 0.02 0.01 0.00 0.00 0.00 0.00 0.00
0.03 0.03 0.02 0.02 0.04 0.05 0.05 0.05 0.06 0.06 0.06 0.04 0.03 0.03 0.03 0.03 0.02 0.01 0.01 0.02 0.03 0.02 0.02 0.01 0.01 0.01 0.01 0.01 0.01 0.01 0.01 0.01 0.00 0.01 0.01 0.01 0.01 0.01 0.01 0.00 0.01 0.01 0.01
0.03 0.02 0.02 0.02 0.04 0.05 0.05 0.06 0.06 0.07 0.07 0.05 0.04 0.03 0.03 0.03 0.03 0.02 0.01 0.02 0.02 0.01 0.01 0.01 0.01 0.00 0.00 0.01 0.01 0.01 0.01 0.01 0.01 0.01 0.01 0.00 0.00 0.00 0.00 0.00 0.01 0.01 0.01
0.01 0.01 0.01 0.02 0.03 0.04 0.06 0.05 0.04 0.05 0.05 0.04 0.03 0.03 0.03 0.03 0.03 0.03 0.02 0.02 0.02 0.01 0.01 0.00 0.01 0.00 0.00 0.00 0.00 0.01 0.01 0.01 0.00 0.00 0.01 0.00 0.01 0.01 0.01 0.00 0.00 0.01 0.01
0.01 0.01 0.01 0.02 0.03 0.03 0.03 0.02 0.01 0.02 0.02 0.02 0.02 0.02 0.02 0.02 0.02 0.02 0.02 0.02 0.02 0.02 0.01 0.01 0.01 0.00 0.00 0.00 0.00 0.00 0.00 0.00 0.01 0.01 0.01 0.01 0.01 0.01 0.01 0.01 0.00 0.00 0.01
0.01 0.01 0.01 0.01 0.02 0.03 0.02 0.00 0.00 0.01 0.02 0.02 0.02 0.02 0.01 0.01 0.01 0.02 0.02 0.02 0.02 0.02 0.02 0.02 0.01 0.01 0.01 0.01 0.00 0.00 0.00 0.00 0.01 0.01 0.01 0.01 0.01 0.01 0.01 0.01 0.01 0.01 0.01
0.00 0.01 0.01 0.02 0.02 0.02 0.02 0.02 0.02 0.01 0.01 0.01 0.01 0.02 0.02 0.02 0.02 0.03 0.03 0.03 0.03 0.03 0.02 0.02 0.02 0.02 0.02 0.01 0.01 0.00 0.00 0.00 0.00 0.01 0.01 0.01 0.01 0.01 0.01 0.01 0.01 0.02 0.01
0.01 0.01 0.02 0.02 0.03 0.03 0.03 0.02 0.02 0.01 0.01 0.01 0.02 0.02 0.02 0.03 0.04 0.04 0.04 0.04 0.05 0.04 0.03 0.03 0.03 0.04 0.04 0.03 0.03 0.01 0.00 0.00 0.00 0.01 0.01 0.01 0.01 0.00 0.01 0.01 0.01 0.01 0.01
0.01 0.01 0.02 0.03 0.03 0.03 0.03 0.03 0.02 0.02 0.02 0.02 0.03 0.03 0.03 0.03 0.04 0.05 0.03 0.02 0.03 0.02 0.02 0.02 0.03 0.03 0.03 0.04 0.03 0.03 0.02 0.01 0.01 0.01 0.01 0.01 0.01 0.01 0.01 0.01 0.02 0.01 0.01
0.00 0.00 0.01 0.01 0.02 0.03 0.02 0.01 0.01 0.02 0.02 0.03 0.04 0.04 0.03 0.02 0.02 0.02 0.02 0.01 0.01 0.01 0.01 0.01 0.01 0.02 0.03 0.03 0.03 0.03 0.03 0.02 0.01 0.00 0.00 0.01 0.01 0.01 0.00 0.00 0.00 0.01 0.01
0.00 0.00 0.00 0.01 0.02 0.03 0.02 0.02 0.02 0.02 0.03 0.04 0.04 0.04 0.03 0.02 0.02 0.01 0.01 0.01 0.01 0.01 0.02 0.01 0.01 0.02 0.03 0.04 0.03 0.03 0.03 0.02 0.02 0.01 0.01 0.01 0.01 0.01 0.01 0.01 0.01 0.01 0.01
0.00 0.00 0.00 0.01 0.02 0.04 0.02 0.02 0.02 0.02 0.03 0.03 0.04 0.04 0.03 0.02 0.02 0.02 0.01 0.02 0.03 0.02 0.02 0.02 0.02 0.03 0.03 0.03 0.04 0.04 0.04 0.03 0.03 0.02 0.01 0.01 0.01 0.02 0.02 0.01 0.01 0.01 0.01
0.01 0.01 0.01 0.02 0.03 0.03 0.03 0.02 0.01 0.02 0.03 0.03 0.03 0.03 0.03 0.03 0.02 0.02 0.03 0.03 0.02 0.03 0.03 0.03 0.02 0.02 0.02 0.03 0.04 0.04 0.04 0.04 0.03 0.03 0.02 0.02 0.02 0.03 0.04 0.04 0.03 0.02 0.01
0.01 0.01 0.01 0.02 0.02 0.02 0.02 0.02 0.02 0.02 0.02 0.02 0.02 0.03 0.03 0.02 0.02 0.02 0.03 0.05 0.03 0.02 0.03 0.03 0.02 0.03 0.03 0.03 0.03 0.03 0.03 0.03 0.04 0.03 0.03 0.02 0.02 0.03 0.05 0.05 0.03 0.03 0.02
0.01 0.01 0.01 0.01 0.01 0.02 0.02 0.01 0.02 0.02 0.02 0.01 0.01 0.03 0.03 0.02 0.01 0.02 0.04 0.07 0.05 0.03 0.03 0.02 0.02 0.02 0.02 0.03 0.03 0.03 0.03 0.03 0.03 0.03 0.04 0.03 0.03 0.02 0.02 0.02 0.02 0.02 0.03
0.01 0.01 0.00 0.01 0.01 0.02 0.02 0.02 0.01 0.01 0.02 0.02 0.01 0.01 0.02 0.02 0.01 0.01 0.03 0.05 0.05 0.05 0.04 0.03 0.01 0.02 0.03 0.03 0.03 0.03 0.03 0.04 0.03 0.03 0.03 0.04 0.04 0.03 0.02 0.02 0.01 0.01 0.01
0.01 0.01 0.01 0.01 0.01 0.01 0.02 0.03 0.02 0.01 0.01 0.01 0.01 0.01 0.02 0.02 0.02 0.01 0.02 0.03 0.04 0.05 0.04 0.04 0.03 0.01 0.01 0.01 0.02 0.02 0.02 0.02 0.03 0.03 0.03 0.04 0.04 0.04 0.02 0.01 0.01 0.01 0.01
0.01 0.01 0.02 0.02 0.01 0.02 0.02 0.02 0.02 0.01 0.01 0.01 0.01 0.01 0.02 0.02 0.01 0.01 0.01 0.01 0.02 0.04 0.03 0.03 0.03 0.03 0.02 0.01 0.01 0.01 0.01 0.01 0.02 0.03 0.04 0.05 0.04 0.04 0.03 0.02 0.01 0.01 0.01
0.02 0.02 0.02 0.03 0.03 0.03 0.03 0.03 0.03 0.02 0.02 0.01 0.00 0.01 0.01 0.02 0.01 0.01 0.01 0.01 0.01 0.02 0.03 0.04 0.03 0.03 0.02 0.01 0.01 0.01 0.01 0.01 0.01 0.02 0.03 0.04 0.05 0.04 0.03 0.02 0.01 0.00 0.00
0.02 0.02 0.02 0.02 0.03 0.04 0.04 0.04 0.04 0.03 0.02 0.02 0.01 0.01 0.01 0.02 0.02 0.02 0.02 0.02 0.02 0.02 0.04 0.04 0.04 0.02 0.02 0.02 0.01 0.01 0.01 0.01 0.01 0.02 0.03 0.03 0.04 0.04 0.04 0.03 0.02 0.01 0.00
0.01 0.01 0.02 0.02 0.03 0.04 0.04 0.05 0.04 0.03 0.02 0.02 0.01 0.01 0.01 0.02 0.03 0.03 0.03 0.02 0.02 0.03 0.05 0.05 0.04 0.03 0.02 0.01 0.01 0.01 0.01 0.02 0.02 0.02 0.03 0.03 0.03 0.03 0.03 0.03 0.03 0.02 0.01
0.01 0.01 0.01 0.02 0.03 0.04 0.04 0.04 0.05 0.04 0.03 0.02 0.01 0.02 0.02 0.02 0.03 0.04 0.03 0.03 0.02 0.02 0.02 0.03 0.04 0.05 0.04 0.02 0.01 0.01 0.01 0.02 0.03 0.03 0.03 0.03 0.03 0.04 0.03 0.02 0.03 0.02 0.02
0.01 0.01 0.01 0.02 0.03 0.04 0.04 0.03 0.04 0.04 0.04 0.02 0.02 0.02 0.02 0.02 0.03 0.04 0.03 0.02 0.02 0.02 0.01 0.02 0.02 0.03 0.04 0.04 0.04 0.03 0.02 0.02 0.02 0.03 0.03 0.03 0.04 0.04 0.04 0.03 0.03 0.03 0.03
0.01 0.01 0.01 0.02 0.03 0.03 0.04 0.04 0.04 0.04 0.04 0.03 0.02 0.02 0.01 0.01 0.02 0.02 0.02 0.02 0.02 0.03 0.02 0.02 0.02 0.01 0.02 0.03 0.03 0.03 0.02 0.02 0.02 0.03 0.03 0.03 0.03 0.03 0.03 0.04 0.04 0.04 0.03
MSLP
1006.90 1006.44 1006.03 1005.71 1005.54 1005.56 1005.79 1006.24 1006.89 1007.66 1008.51 1009.35 1010.12 1010.78 1011.31 1011.72 1012.04 1012.33 1012.62 1012.96 1013.38 1013.89 1014.48 1015.13 1015.82 1016.51 1017.19 1017.85 1018.47 1019.07 1019.65 1020.22 1020.78 1021.32 1021.85 1022.33 1022.75 1023.09 1023.34 1023.51 1023.60 1023.63 1023.64
1006.68 1006.18 1005.69 1005.25 1004.93 1004.80 1004.90 1005.25 1005.85 1006.64 1007.56 1008.51 1009.42 1010.22 1010.88 1011.39 1011.78 1012.11 1012.41 1012.76 1013.18 1013.70 1014.30 1014.98 1015.69 1016.40 1017.09 1017.74 1018.35 1018.94 1019.51 1020.08 1020.67 1021.27 1021.86 1022.43 1022.96 1023.41 1023.76 1024.01 1024.16 1024.24 1024.27
1006.60 1006.06 1005.49 1004.93 1004.46 1004.16 1004.10 1004.32 1004.84 1005.61 1006.55 1007.58 1008.61 1009.54 1010.34 1010.97 1011.45 1011.84 1012.18 1012.55 1012.98 1013.51 1014.12 1014.80 1015.52 1016.24 1016.93 1017.57 1018.17 1018.74 1019.30 1019.88 1020.48 1021.11 1021.77 1022.42 1023.03 1023.58 1024.02 1024.36 1024.59 1024.73 1024.80
1006.70 1006.12 1005.47 1004.79 1004.17 1003.70 1003.47 1003.53 1003.94 1004.64 1005.57 1006.64 1007.74 1008.79 1009.70 1010.45 1011.03 1011.50 1011.90 1012.31 1012.76 1013.30 1013.92 1014.61 1015.33 1016.05 1016.74 1017.38 1017.98 1018.54 1019.09 1019.66 1020.27 1020.93 1021.62 1022.32 1023.00 1023.62 1024.14 1024.56 1024.86 1025.07 1025.20
1006.95 1006.34 1005.62 1004.84 1004.08 1003.44 1003.04 1002.93 1003.19 1003.78 1004.66 1005.72 1006.86 1007.97 1008.98 1009.83 1010.52 1011.08 1011.55 1012.01 1012.50 1013.06 1013.69 1014.39 1015.13 1015.86 1016.56 1017.21 1017.81 1018.37 1018.92 1019.49 1020.10 1020.76 1021.46 1022.18 1022.88 1023.54 1024.11 1024.59 1024.96 1025.23 1025.42
1007.32 1006.68 1005.90 1005.04 1004.16 1003.37 1002.80 1002.52 1002.61 1003.07 1003.85 1004.85 1005.98 1007.13 1008.20 1009.14 1009.91 1010.56 1011.11 1011.63 1012.17 1012.76 1013.43 1014.15 1014.91 1015.66 1016.39 1017.06 1017.68 1018.26 1018.82 1019.39 1019.99 1020.63 1021.30 1022.00 1022.70 1023.35 1023.95 1024.45 1024.87 1025.21 1025.47
1007.73 1007.05 1006.24 1005.30 1004.33 1003.42 1002.69 1002.25 1002.18 1002.48 1003.13 1004.04 1005.13 1006.27 1007.37 1008.37 1009.23 1009.95 1010.59 1011.18 1011.78 1012.42 1013.12 1013.87 1014.66 1015.46 1016.22 1016.94 1017.60 1018.21 1018.78 1019.34 1019.92 1020.52 1021.15 1021.80 1022.45 1023.08 1023.66 1024.18 1024.64 1025.03 1025.36
1008.08 1007.37 1006.52 1005.53 1004.49 1003.48 1002.63 1002.04 1001.81 1001.96 1002.47 1003.28 1004.29 1005.40 1006.51 1007.55 1008.48 1009.28 1010.00 1010.66 1011.33 1012.02 1012.76 1013.56 1014.40 1015.24 1016.05 1016.82 1017.53 1018.17 1018.76 1019.32 1019.87 1020.43 1021.00 1021.58 1022.16 1022.74 1023.29 1023.81 1024.29 1024.73 1025.12
1008.29 1007.55 1006.66 1005.64 1004.54 1003.46 1002.51 1001.81 1001.44 1001.45 1001.84 1002.53 1003.47 1004.53 1005.64 1006.71 1007.69 1008.57 1009.37 1010.11 1010.84 1011.59 1012.38 1013.22 1014.10 1014.99 1015.85 1016.67 1017.42 1018.10 1018.72 1019.28 1019.80 1020.31 1020.82 1021.32 1021.84 1022.36 1022.87 1023.39 1023.89 1024.37 1024.83
1008.30 1007.52 1006.61 1005.56 1004.42 1003.29 1002.28 1001.48 1001.02 1000.91 1001.18 1001.79 1002.65 1003.68 1004.78 1005.88 1006.92 1007.86 1008.73 1009.55 1010.34 1011.14 1011.97 1012.85 1013.77 1014.69 1015.60 1016.46 1017.26 1017.98 1018.62 1019.18 1019.69 1020.15 1020.60 1021.04 1021.50 1021.97 1022.45 1022.96 1023.48 1024.01 1024.53
1008.13 1007.31 1006.36 1005.27 1004.11 1002.95 1001.89 1001.04 1000.49 1000.31 1000.50 1001.03 1001.84 1002.84 1003.95 1005.08 1006.17 1007.19 1008.13 1009.01 1009.85 1010.70 1011.57 1012.47 1013.40 1014.35 1015.28 1016.18 1017.01 1017.76 1018.42 1018.99 1019.49 1019.94 1020.35 1020.75 1021.16 1021.60 1022.07 1022.58 1023.13 1023.70 1024.27
1007.85 1006.97 1005.97 1004.85 1003.66 1002.47 1001.38 1000.49 999.90 999.66 999.79 1000.28 1001.05 1002.05 1003.17 1004.33 1005.48 1006.56 1007.57 1008.51 1009.40 1010.28 1011.16 1012.07 1013.01 1013.96 1014.90 1015.81 1016.67 1017.45 1018.13 1018.72 1019.23 1019.67 1020.07 1020.46 1020.85 1021.27 1021.74 1022.26 1022.83 1023.43 1024.06
1007.54 1006.60 1005.54 1004.38 1003.15 1001.93 1000.81 999.89 999.27 999.00 999.10 999.55 1000.31 1001.30 1002.44 1003.65 1004.84 1005.99 1007.05 1008.04 1008.98 1009.88 1010.77 1011.67 1012.59 1013.53 1014.47 1015.38 1016.25 1017.05 1017.76 1018.37 1018.90 1019.36 1019.77 1020.16 1020.55 1020.98 1021.45 1021.98 1022.57 1023.20 1023.85
1007.29 1006.28 1005.16 1003.95 1002.67 1001.42 1000.28 999.34 998.69 998.39 998.46 998.89 999.64 1000.63 1001.78 1003.02 1004.26 1005.45 1006.57 1007.61 1008.57 1009.49 1010.37 1011.26 1012.16 1013.07 1013.99 1014.89 1015.76 1016.58 1017.31 1017.96 1018.52 1019.01 1019.45 1019.85 1020.26 1020.70 1021.18 1021.72 1022.31 1022.95 1023.61
1007.16 1006.09 1004.91 1003.64 1002.32 1001.04 999.86 998.89 998.22 997.89 997.93 998.33 999.05 1000.03 1001.19 1002.44 1003.71 1004.95 1006.11 1007.18 1008.17 1009.09 1009.97 1010.84 1011.71 1012.60 1013.49 1014.38 1015.24 1016.06 1016.82 1017.50 1018.09 1018.62 1019.09 1019.52 1019.95 1020.40 1020.88 1021.42 1022.01 1022.63 1023.28
1007.16 1006.05 1004.82 1003.50 1002.15 1000.83 999.63 998.63 997.92 997.55 997.54 997.90 998.57 999.52 1000.66 1001.91 1003.19 1004.44 1005.63 1006.73 1007.74 1008.68 1009.56 1010.41 1011.25 1012.11 1012.97 1013.84 1014.69 1015.52 1016.29 1016.99 1017.63 1018.19 1018.69 1019.16 1019.60 1020.06 1020.54 1021.06 1021.62 1022.22 1022.84
1007.27 1006.13 1004.88 1003.54 1002.16 1000.82 999.59 998.56 997.81 997.38 997.31 997.60 998.21 999.09 1000.18 1001.40 1002.67 1003.93 1005.13 1006.26 1007.29 1008.24 1009.12 1009.96 1010.79 1011.62 1012.46 1013.30 1014.14 1014.96 1015.74 1016.46 1017.12 1017.72 1018.25 1018.74 1019.20 1019.65 1020.12 1020.62 1021.16 1021.72 1022.31
1007.42 1006.30 1005.06 1003.72 1002.35 1001.01 999.77 998.71 997.91 997.42 997.26 997.45 997.97 998.76 999.77 1000.93 1002.16 1003.41 1004.62 1005.75 1006.81 1007.77 1008.67 1009.52 1010.34 1011.15 1011.96 1012.78 1013.60 1014.41 1015.19 1015.92 1016.60 1017.22 1017.77 1018.28 1018.75 1019.21 1019.67 1020.14 1020.64 1021.17 1021.72
1007.57 1006.49 1005.30 1004.01 1002.68 1001.36 1000.12 999.04 998.20 997.63 997.38 997.45 997.84 998.51 999.42 1000.49 1001.67 1002.88 1004.08 1005.23 1006.31 1007.30 1008.22 1009.08 1009.89 1010.69 1011.49 1012.28 1013.08 1013.87 1014.64 1015.38 1016.07 1016.70 1017.28 1017.81 1018.29 1018.76 1019.21 1019.67 1020.14 1020.64 1021.17
1007.68 1006.69 1005.57 1004.37 1003.10 1001.83 1000.62 999.54 998.64 998.00 997.63 997.58 997.83 998.36 999.14 1000.11 1001.21 1002.38 1003.56 1004.71 1005.81 1006.83 1007.77 1008.65 1009.47 1010.27 1011.05 1011.82 1012.59 1013.36 1014.12 1014.85 1015.55 1016.20 1016.80 1017.35 1017.86 1018.34 1018.80 1019.25 1019.72 1020.21 1020.73
1007.77 1006.88 1005.87 1004.77 1003.60 1002.40 1001.23 1000.14 999.21 998.49 998.01 997.82 997.92 998.30 998.93 999.78 1000.79 1001.90 1003.06 1004.21 1005.32 1006.37 1007.34 1008.24 1009.08 1009.87 1010.64 1011.40 1012.15 1012.90 1013.64 1014.37 1015.07 1015.74 1016.36 1016.94 1017.48 1017.99 1018.47 1018.95 1019.43 1019.92 1020.44
1007.86 1007.08 1006.20 1005.22 1004.15 1003.04 1001.91 1000.84 999.87 999.07 998.48 998.15 998.09 998.31 998.80 999.52 1000.43 1001.47 1002.59 1003.73 1004.85 1005.92 1006.92 1007.85 1008.70 1009.50 1010.27 1011.01 1011.74 1012.47 1013.20 1013.92 1014.63 1015.32 1015.97 1016.59 1017.17 1017.72 1018.24 1018.75 1019.26 1019.77 1020.31
1008.01 1007.35 1006.59 1005.72 1004.76 1003.72 1002.65 1001.58 1000.58 999.70 999.01 998.54 998.34 998.40 998.74 999.33 1000.13 1001.09 1002.15 1003.27 1004.40 1005.48 1006.51 1007.46 1008.34 1009.15 1009.91 1010.65 1011.37 1012.08 1012.80 1013.52 1014.24 1014.95 1015.63 1016.29 1016.92 1017.51 1018.08 1018.63 1019.18 1019.72 1020.27
1008.27 1007.71 1007.05 1006.28 1005.40 1004.43 1003.39 1002.33 1001.30 1000.36 999.57 998.98 998.63 998.55 998.74 999.19 999.88 1000.76 1001.76 1002.85 1003.96 1005.05 1006.09 1007.07 1007.96 1008.79 1009.56 1010.30 1011.01 1011.72 1012.43 1013.15 1013.87 1014.60 1015.31 1016.00 1016.67 1017.31 1017.93 1018.52 1019.11 1019.68 1020.26
1008.65 1008.16 1007.58 1006.88 1006.06 1005.14 1004.12 1003.06 1002.00 1001.01 1000.13 999.43 998.96 998.74 998.80 999.13 999.71 1000.49 1001.42 1002.46 1003.55 1004.63 1005.68 1006.67 1007.58 1008.42 1009.21 1009.95 1010.66 1011.37 1012.07 1012.79 1013.52 1014.25 1014.97 1015.69 1016.39 1017.07 1017.72 1018.35 1018.96 1019.56 1020.16
1009.14 1008.69 1008.15 1007.49 1006.71 1005.81 1004.81 1003.74 1002.66 1001.62 1000.68 999.90 999.33 999.00 998.94 999.15 999.62 1000.30 1001.16 1002.13 1003.17 1004.24 1005.28 1006.27 1007.20 1008.05 1008.85 1009.60 1010.32 1011.02 1011.72 1012.43 1013.15 1013.87 1014.60 1015.32 1016.03 1016.72 1017.38 1018.03 1018.67 1019.29 1019.91
Thickness
5714 5715 5715 5714 5712 5710 5708 5707 5705 5704 5702 5700 5697 5695 5694 5694 5694 5693 5692 5692 5691 5690 5689 5687 5685 5683 5681 5679 5677 5674 5671 5669 5668 5666 5663 5663 5664 5664 5664 5665 5666 5667 5668
5709 5710 5711 5710 5709 5707 5706 5705 5703 5702 5700 5698 5696 5694 5692 5691 5690 5689 5688 5688 5687 5686 5685 5683 5681 5679 5677 5674 5672 5670 5667 5664 5663 5660 5657 5653 5654 5656 5658 5658 5659 5659 5661
5707 5707 5706 5706 5706 5704 5703 5703 5701 5699 5698 5696 5693 5691 5688 5687 5685 5685 5684 5684 5683 5682 5681 5680 5678 5675 5674 5671 5669 5667 5664 5660 5658 5657 5653 5648 5645 5646 5649 5650 5651 5652 5654
5706 5704 5704 5703 5703 5703 5702 5701 5699 5696 5694 5693 5690 5687 5684 5681 5681 5681 5681 5680 5680 5679 5677 5676 5674 5672 5670 5668 5665 5664 5662 5659 5654 5652 5650 5648 5646 5642 5641 5643 5644 5646 5647
5704 5703 5702 5702 5701 5701 5699 5698 5696 5694 5692 5690 5688 5685 5682 5680 5679 5678 5677 5676 5675 5674 5674 5672 5670 5668 5666 5664 5662 5660 5658 5656 5653 5649 5646 5643 5640 5639 5637 5635 5637 5638 5640
5701 5700 5700 5698 5697 5696 5695 5694 5692 5689 5688 5686 5684 5682 5680 5678 5675 5674 5672 5671 5670 5670 5669 5668 5666 5664 5662 5661 5659 5657 5655 5652 5650 5647 5645 5642 5639 5636 5634 5631 5629 5630 5633
5697 5696 5694 5692 5692 5691 5690 5689 5687 5685 5684 5683 5681 5680 5678 5676 5673 5671 5669 5667 5665 5665 5664 5664 5662 5660 5659 5657 5655 5653 5651 5649 5646 5644 5642 5640 5638 5636 5633 5629 5626 5625 5626
5693 5692 5691 5689 5688 5687 5686 5684 5682 5681 5680 5679 5678 5677 5675 5673 5671 5669 5667 5665 5664 5662 5661 5659 5658 5656 5655 5653 5651 5649 5647 5645 5643 5641 5639 5636 5634 5633 5631 5628 5623 5620 5620
5688 5688 5687 5686 5685 5683 5682 5681 5679 5678 5677 5676 5675 5674 5672 5670 5668 5667 5665 5663 5661 5659 5657 5655 5653 5652 5650 5649 5647 5644 5642 5640 5638 5637 5635 5632 5630 5629 5627 5625 5623 5619 5615
5682 5683 5682 5681 5681 5680 5680 5678 5677 5675 5674 5673 5671 5671 5669 5667 5665 5662 5661 5659 5657 5655 5653 5651 5649 5647 5646 5644 5642 5639 5638 5635 5633 5632 5630 5628 5626 5624 5623 5621 5619 5617 5615
5677 5678 5678 5678 5677 5676 5675 5674 5673 5671 5670 5669 5667 5666 5665 5663 5661 5659 5657 5655 5653 5651 5649 5647 5645 5643 5640 5639 5637 5635 5633 5631 5629 5627 5625 5623 5622 5620 5618 5616 5614 5613 5611
5672 5673 5673 5672 5671 5670 5670 5669 5669 5668 5666 5665 5663 5662 5660 5658 5656 5655 5653 5651 5649 5647 5645 5643 5641 5638 5636 5634 5632 5630 5628 5626 5624 5622 5621 5619 5618 5615 5614 5612 5610 5609 5608
5667 5667 5666 5666 5666 5665 5665 5665 5665 5664 5662 5660 5658 5656 5655 5653 5651 5650 5648 5647 5645 5642 5640 5638 5636 5634 5632 5630 5628 5626 5624 5622 5620 5619 5617 5615 5613 5611 5609 5608 5607 5605 5605
5661 5661 5660 5660 5661 5660 5660 5659 5659 5659 5657 5655 5653 5651 5650 5648 5647 5645 5643 5642 5640 5638 5635 5633 5631 5629 5628 5626 5624 5622 5619 5618 5616 5614 5613 5611 5610 5609 5607 5605 5603 5602 5600
5657 5657 5656 5655 5655 5655 5655 5654 5654 5654 5652 5650 5648 5646 5645 5643 5641 5640 5638 5636 5634 5633 5630 5628 5626 5624 5623 5621 5619 5617 5615 5613 5611 5610 5609 5608 5607 5607 5605 5604 5601 5599 5596
5652 5652 5652 5651 5651 5651 5650 5649 5648 5647 5646 5644 5643 5641 5639 5637 5635 5634 5632 5630 5628 5626 5624 5622 5620 5619 5619 5618 5616 5614 5611 5608 5606 5604 5603 5603 5603 5602 5602 5601 5600 5598 5594
5647 5647 5647 5647 5647 5647 5646 5644 5643 5641 5639 5638 5637 5635 5634 5631 5630 5629 5626 5624 5622 5620 5618 5617 5615 5613 5613 5613 5612 5610 5607 5604 5601 5600 5599 5599 5599 5598 5596 5596 5595 5594 5593
5642 5642 5642 5642 5643 5643 5641 5639 5637 5635 5633 5631 5630 5629 5627 5626 5624 5622 5620 5618 5617 5614 5613 5611 5610 5608 5608 5608 5607 5605 5602 5599 5597 5596 5595 5594 5593 5593 5592 5590 5589 5588 5587
5638 5637 5638 5637 5637 5636 5635 5633 5630 5629 5627 5625 5623 5623 5621 5619 5617 5616 5614 5613 5611 5609 5607 5605 5604 5602 5602 5603 5602 5600 5596 5594 5592 5591 5590 5589 5589 5589 5588 5586 5583 5582 5581
5632 5631 5631 5631 5630 5630 5629 5626 5624 5622 5621 5620 5619 5618 5616 5614 5612 5610 5609 5607 5605 5604 5602 5600 5598 5597 5596 5597 5596 5595 5592 5589 5587 5586 5586 5585 5585 5584 5583 5581 5579 5577 5576
5626 5625 5624 5623 5624 5623 5621 5619 5617 5616 5617 5616 5614 5612 5610 5608 5606 5605 5603 5601 5599 5597 5595 5593 5592 5591 5591 5591 5591 5589 5587 5585 5583 5581 5581 5580 5580 5579 5578 5577 5575 5574 5572
5618 5618 5616 5616 5616 5616 5614 5612 5611 5612 5611 5609 5607 5605 5604 5602 5601 5598 5596 5594 5592 5590 5588 5587 5585 5585 5585 5585 5585 5584 5583 5582 5579 5578 5577 5576 5575 5574 5573 5571 5570 5569 5566
5610 5610 5609 5608 5608 5608 5608 5605 5605 5604 5602 5601 5599 5598 5597 5595 5593 5591 5589 5587 5586 5584 5582 5580 5579 5579 5578 5578 5578 5578 5577 5576 5574 5573 5572 5570 5569 5568 5566 5565 5564 5561 5558
5601 5601 5601 5600 5600 5600 5600 5599 5599 5597 5595 5593 5592 5590 5589 5587 5585 5584 5582 5580 5579 5577 5576 5574 5573 5572 5571 5570 5570 5570 5569 5568 5566 5565 5564 5563 5561 5560 5558 5557 5555 5553 5551
5594 5593 5593 5592 5592 5592 5591 5591 5591 5589 5587 5586 5585 5583 5582 5580 5578 5576 5575 5574 5574 5573 5571 5569 5567 5565 5564 5566 5566 5563 5562 5561 5559 5558 5555 5553 5551 5550 5549 5548 5547 5545 5544
5586 5585 5584 5584 5584 5584 5583 5583 5582 5582 5580 5578 5577 5576 5575 5572 5570 5568 5566 5566 5566 5566 5565 5564 5561 5560 5560 5559 5558 5557 5556 5555 5553 5550 5547 5545 5544 5543 5541 5540 5539 5538 5537